Location: Roland
(31.1349°N, 85.4372°W)
Time: 04:04:27
(UTC+00:00)

Courier 1B - Pass Details

Date: 24 April 2021
Orbit: 962 x 1209 km, 28.3° (Epoch: 07 May)

Event Time Altitude Azimuth Distance (km) Brightness Sun altitude
Rises 22:52:04 0° 265° (W) 3,634 12.1 16.9°
Reaches altitude 10° 22:55:52 10° 244° (WSW) 2,684 11.0 16.1°
Maximum altitude 22:59:29 16° 209° (SSW) 2,312 9.9 15.3°
Drops below altitude 10° 23:03:08 10° 174° (S) 2,711 9.8 14.5°
Sets 23:07:01 0° 153° (SSE) 3,690 10.2 13.7°
